TimeEDT,TemperatureF,Dew PointF,Humidity,Sea Level PressureIn,VisibilityMPH,Wind Direction,Wind SpeedMPH,Gust SpeedMPH,PrecipitationIn,Events,Conditions,WindDirDegrees,DateUTC
12:16 AM,59.0,57.2,94,29.84,5.0,NW,5.8,-,0.01,Rain,Light Rain,310,2013-06-16 04:16:00
12:44 AM,60.8,57.2,88,29.85,5.0,North,4.6,-,0.01,Rain,Light Rain,360,2013-06-16 04:44:00
12:54 AM,59.0,57.9,96,29.85,2.5,North,5.8,-,0.01,Rain,Light Rain,360,2013-06-16 04:54:00
1:06 AM,59.0,57.2,94,29.83,2.0,North,3.5,-,0.02,Rain,Light Rain,10,2013-06-16 05:06:00
1:18 AM,59.0,57.2,94,29.84,4.0,Calm,Calm,-,0.03,Rain,Light Rain,0,2013-06-16 05:18:00
1:54 AM,59.0,57.9,96,29.82,4.0,Variable,3.5,-,0.07,Rain,Light Rain,0,2013-06-16 05:54:00
2:54 AM,61.0,59.0,93,29.75,10.0,Calm,Calm,-,0.10,Rain,Light Rain,0,2013-06-16 06:54:00
3:54 AM,61.0,59.0,93,29.76,10.0,NW,5.8,-,0.00,Rain,Light Rain,320,2013-06-16 07:54:00
4:41 AM,57.2,57.2,100,29.78,2.5,NW,12.7,-,0.00,,Overcast,310,2013-06-16 08:41:00
4:49 AM,57.2,57.2,100,29.78,1.0,WNW,9.2,-,0.00,,Overcast,290,2013-06-16 08:49:00
4:54 AM,57.9,57.0,97,29.78,0.8,West,8.1,-,0.00,,Overcast,280,2013-06-16 08:54:00
5:19 AM,57.2,57.2,100,29.78,1.0,West,6.9,-,N/A,,Mist,280,2013-06-16 09:19:00
5:38 AM,57.2,57.2,100,29.77,3.0,West,5.8,-,N/A,,Overcast,280,2013-06-16 09:38:00
5:54 AM,57.9,57.0,97,29.76,6.0,West,3.5,-,N/A,,Overcast,270,2013-06-16 09:54:00
6:35 AM,59.0,57.2,94,29.77,10.0,Calm,Calm,-,N/A,,Overcast,0,2013-06-16 10:35:00
6:54 AM,59.0,57.0,93,29.77,10.0,Calm,Calm,-,N/A,,Overcast,0,2013-06-16 10:54:00
7:54 AM,61.0,59.0,93,29.78,7.0,Calm,Calm,-,N/A,,Overcast,0,2013-06-16 11:54:00
8:54 AM,62.1,60.1,93,29.78,4.0,WNW,3.5,-,N/A,,Overcast,290,2013-06-16 12:54:00
9:05 AM,62.6,60.8,94,29.79,2.0,WNW,4.6,-,N/A,,Overcast,300,2013-06-16 13:05:00
9:27 AM,62.6,60.8,94,29.79,3.0,WNW,3.5,-,N/A,,Overcast,300,2013-06-16 13:27:00
9:54 AM,64.0,61.0,90,29.79,5.0,WNW,5.8,-,N/A,,Overcast,290,2013-06-16 13:54:00
10:37 AM,64.4,60.8,88,29.79,9.0,WSW,4.6,-,N/A,,Overcast,250,2013-06-16 14:37:00
10:54 AM,64.9,61.0,87,29.79,9.0,West,5.8,-,N/A,,Overcast,280,2013-06-16 14:54:00
11:37 AM,68.0,60.8,78,29.78,10.0,Variable,5.8,-,N/A,,Mostly Cloudy,0,2013-06-16 15:37:00
11:54 AM,69.1,61.0,75,29.77,10.0,Variable,4.6,-,N/A,,Scattered Clouds,0,2013-06-16 15:54:00
12:54 PM,69.1,60.1,73,29.77,10.0,WSW,12.7,-,N/A,,Clear,250,2013-06-16 16:54:00
1:19 PM,66.2,60.8,83,29.78,10.0,WSW,9.2,18.4,N/A,,Mostly Cloudy,240,2013-06-16 17:19:00
1:54 PM,66.9,60.1,79,29.77,10.0,West,11.5,23.0,N/A,,Overcast,260,2013-06-16 17:54:00
2:06 PM,68.0,60.8,78,29.78,10.0,SW,12.7,20.7,N/A,,Overcast,230,2013-06-16 18:06:00
2:31 PM,69.8,60.8,73,29.77,10.0,WSW,17.3,25.3,N/A,,Scattered Clouds,250,2013-06-16 18:31:00
2:54 PM,73.0,59.0,61,29.76,10.0,WSW,15.0,23.0,N/A,,Clear,240,2013-06-16 18:54:00
3:54 PM,71.1,55.0,57,29.78,10.0,WSW,11.5,19.6,N/A,Thunderstorm,Mostly Cloudy,250,2013-06-16 19:54:00
4:16 PM,66.2,57.2,73,29.79,10.0,West,8.1,16.1,0.00,Rain,Light Rain,270,2013-06-16 20:16:00
4:54 PM,71.1,57.9,63,29.79,10.0,WSW,8.1,-,0.00,,Mostly Cloudy,250,2013-06-16 20:54:00
5:54 PM,71.1,57.0,61,29.80,10.0,West,8.1,-,N/A,,Mostly Cloudy,260,2013-06-16 21:54:00
6:54 PM,64.9,59.0,81,29.81,7.0,WSW,10.4,-,0.05,Rain-Thunderstorm,Light Thunderstorms and Rain,240,2013-06-16 22:54:00
7:27 PM,66.2,59.0,78,29.80,10.0,WSW,5.8,-,0.00,Rain,Light Rain,250,2013-06-16 23:27:00
7:54 PM,66.9,57.9,73,29.80,10.0,WNW,5.8,-,0.00,,Clear,290,2013-06-16 23:54:00
8:54 PM,64.0,59.0,84,29.81,10.0,NW,3.5,-,N/A,,Clear,310,2013-06-17 00:54:00
9:54 PM,61.0,57.9,90,29.83,10.0,WNW,4.6,-,N/A,,Mostly Cloudy,300,2013-06-17 01:54:00
10:54 PM,61.0,54.0,78,29.84,10.0,WNW,5.8,-,0.01,,Mostly Cloudy,300,2013-06-17 02:54:00
11:54 PM,55.9,54.0,93,29.83,10.0,Calm,Calm,-,N/A,,Partly Cloudy,0,2013-06-17 03:54:00